This is the latest recevied weather packets stored in our database for station/object K1BES. If no packets are shown the sender has not sent any weather packets the latest 10 day(s).
| Time | Temp. | Humidity | Pressure | Rain* | Wind** | Luminosity | Snow |
|---|---|---|---|---|---|---|---|
| 1788128243 | 25° C | 93% | 1017.9 hPa | 0 mm | - | 68 W/m² | - |
| 1788127940 | 25° C | 94% | 1017.8 hPa | 0 mm | - | 70 W/m² | - |
| 1788127635 | 25° C | 93% | 1018 hPa | 0 mm | - | 74 W/m² | - |
| 1788127334 | 25° C | 93% | 1017.6 hPa | 0 mm | - | 79 W/m² | - |
| 1788127033 | 25° C | 93% | 1017.4 hPa | 0 mm | - | 85 W/m² | - |
| 1788126727 | 25° C | 93% | 1017.6 hPa | 0 mm | - | 90 W/m² | - |
| 1788126423 | 25° C | 93% | 1017.6 hPa | 0 mm | - | 95 W/m² | - |
| 1788126123 | 25° C | 94% | 1017.6 hPa | 0 mm | - | 98 W/m² | - |
| 1788125822 | 25° C | 94% | 1017.7 hPa | 0 mm | - | 99 W/m² | - |
| 1788125517 | 25° C | 94% | 1017.8 hPa | 0 mm | - | 101 W/m² | - |
| 1788125213 | 25° C | 94% | 1017.7 hPa | 0 mm | - | 103 W/m² | - |
| 1788124908 | 25° C | 94% | 1017.8 hPa | 0 mm | - | 107 W/m² | - |
| 1788124609 | 25° C | 94% | 1017.9 hPa | 0 mm | - | 111 W/m² | - |
| 1788124308 | 25° C | 94% | 1018 hPa | 0 mm | - | 114 W/m² | - |
| 1788124004 | 25° C | 94% | 1018 hPa | 0 mm | - | 115 W/m² | - |
| 1788123703 | 25° C | 94% | 1018.1 hPa | 0 mm | - | 118 W/m² | - |
| 1788123400 | 25° C | 94% | 1018.1 hPa | 0 mm | - | 123 W/m² | - |
| 1788123096 | 25° C | 94% | 1018.3 hPa | 0 mm | - | 136 W/m² | - |
| 1788122795 | 25° C | 93% | 1018.2 hPa | 0 mm | - | 157 W/m² | - |
| 1788122494 | 25° C | 93% | 1018.2 hPa | 0 mm | - | 190 W/m² | - |
| 1788122191 | 25° C | 93% | 1018.4 hPa | 0 mm | - | 244 W/m² | - |
| 1788121891 | 25° C | 92% | 1018.5 hPa | 0 mm | - | 200 W/m² | - |
| 1788121590 | 25.56° C | 92% | 1018.7 hPa | 0 mm | - | 104 W/m² | - |
| 1788121286 | 26.67° C | 93% | 1018.4 hPa | 0 mm | - | 129 W/m² | - |
| 1788120985 | 27.22° C | 96% | 1018.5 hPa | 0 mm | - | 319 W/m² | - |
* Rain latest hour (hover to see other rain measurements)
** Current wind speed in m/s (hover to see current wind gust speed)